Simultaneous Nadir Overpasses (SNOs) Predictions

Prediction of SNOs between GOES-16 and TERRA Satellite Orbit:

Table of predicted SNOs for the next 14.0 days since TLE Epoch: 3/26/2022
Index Date Time (GOES-16) GOES-16 Lat,Lon TERRA Lat,Lon Distance(km) Time Diff (sec)
1 03/27/2022 03:06:06 -0.06, -75.20 0.74, -71.59 411.70 80
2 03/27/2022 15:27:20 0.06, -75.23 0.38, -76.74 171.93 80
3 03/29/2022 15:17:44 0.05, -75.24 -0.23, -73.78 165.76 80
4 03/30/2022 03:39:08 -0.05, -75.22 -0.82, -78.98 426.76 80
5 04/01/2022 03:26:52 -0.05, -75.24 -0.20, -76.02 87.80 80
6 04/03/2022 03:11:56 -0.05, -75.27 0.42, -73.06 251.86 80
7 04/03/2022 15:33:10 0.05, -75.30 0.69, -78.21 331.17 80
8 04/05/2022 15:23:34 0.05, -75.33 0.05, -75.25 9.30 80
9 04/07/2022 15:11:18 0.04, -75.37 -0.59, -72.29 349.42 80
10 04/08/2022 03:32:41 -0.04, -75.36 -0.51, -77.48 242.31 80
